Weather History for KGFK - September, 2014

Change the Weather History Date:

Monday, September 15, 2014

  Actual Average Record
Temperature  
Mean Temperature 51 °F 57 °F  
Max Temperature 69 °F 70 °F 86 °F (2006)
Min Temperature 33 °F 44 °F 29 °F (1949)
Degree Days  
Heating Degree Days 14 9  
Month to date heating degree days 113 92  
Since 1 July heating degree days 167 174  
Cooling Degree Days 0 1  
Month to date cooling degree days 5 21  
Year to date cooling degree days 366 373  
Growing Degree Days 2 (Base 50)    
Moisture  
Dew Point 39 °F    
Average Humidity 64    
Maximum Humidity 93    
Minimum Humidity 34    
Precipitation  
Precipitation 0.00 in 0.06 in 0.88 in (1991)
Month to date precipitation 0.63 1.10  
Year to date precipitation 21.31 16.33  
Snow  
Snow 0.00 in 0.00 in 0.00 in ()
Month to date snowfall 0.0 0.0  
Since 1 July snowfall 0.0 0.0  
Since 1 September snowfall 0.0 0.0  
Snow Depth 0.00 in    
Sea Level Pressure  
Sea Level Pressure 30.17 in    
Wind  
Wind Speed 8 mph (WSW)    
Max Wind Speed 17 mph    
Max Gust Speed 25 mph    
Visibility 10 miles    
Events      
T = Trace of Precipitation, MM = Missing Value Source: NWS Daily Summary

Daily Weather History Graph

Daily Weather History Graph

Search for Another Location

Airport or City:

Trip Planner

Search our weather history database for the weather conditions in past years. The results will help you decide how hot, cold, wet, or windy it might be!

Date:

Astronomy

Sep. 15, 2014 Rise Set
Actual Time 7:05 AM CDT 7:40 PM CDT
Civil Twilight 6:34 AM CDT 8:12 PM CDT
Nautical Twilight 5:57 AM CDT 8:49 PM CDT
Astronomical Twilight 5:18 AM CDT 9:27 PM CDT
Moon 11:58 PM CDT (9/15) 2:33 PM CDT (9/15)
Length of Visible Light 13h 37m
Length of Day
12h 35m
Waning Gibbous, 54% of the Moon is Illuminated
Sep 15
Waning Gibbous
Sep 15
Last Quarter
Sep 24
New
Oct 1
First Quarter
Oct 8
Full

Hourly Weather History & Observations

Time (CDT) Temp. Windchill Dew Point Humidity Pressure Visibility Wind Dir Wind Speed Gust Speed Precip Events Conditions
12:53 AM 46.9 °F - 44.1 °F 90% 30.19 in 10.0 mi WNW 4.6 mph - N/A   Overcast
1:53 AM 46.9 °F - 43.0 °F 86% 30.19 in 10.0 mi West 3.5 mph - N/A   Overcast
2:53 AM 44.1 °F 40.8 °F 42.1 °F 93% 30.20 in 10.0 mi West 5.8 mph - N/A   Mostly Cloudy
3:53 AM 39.9 °F 36.7 °F 37.9 °F 93% 30.21 in 10.0 mi West 4.6 mph - N/A   Clear
4:53 AM 39.0 °F 34.0 °F 37.0 °F 93% 30.21 in 10.0 mi West 6.9 mph - N/A   Clear
5:53 AM 37.0 °F 32.4 °F 35.1 °F 93% 30.22 in 10.0 mi West 5.8 mph - N/A   Clear
6:53 AM 35.1 °F 32.2 °F 33.1 °F 92% 30.24 in 10.0 mi WSW 3.5 mph - N/A   Partly Cloudy
7:53 AM 39.9 °F 37.8 °F 37.0 °F 89% 30.24 in 10.0 mi South 3.5 mph - N/A   Mostly Cloudy
8:53 AM 45.0 °F 43.5 °F 41.0 °F 86% 30.24 in 10.0 mi SSW 3.5 mph - N/A   Mostly Cloudy
9:53 AM 51.1 °F - 43.0 °F 74% 30.24 in 10.0 mi WSW 8.1 mph - N/A   Partly Cloudy
10:53 AM 59.0 °F - 39.0 °F 48% 30.23 in 10.0 mi West 10.4 mph - N/A   Partly Cloudy
11:53 AM 62.1 °F - 37.9 °F 41% 30.22 in 10.0 mi West 8.1 mph - N/A   Partly Cloudy
12:53 PM 62.1 °F - 37.0 °F 39% 30.21 in 10.0 mi West 8.1 mph - N/A   Scattered Clouds
1:53 PM 64.0 °F - 37.9 °F 38% 30.19 in 10.0 mi Variable 6.9 mph - N/A   Scattered Clouds
2:53 PM 66.2 °F - 37.4 °F 35% 30.15 in 10.0 mi WSW 11.5 mph - N/A   Scattered Clouds
3:53 PM 66.9 °F - 39.0 °F 36% 30.14 in 10.0 mi West 16.1 mph 24.2 mph N/A   Scattered Clouds
4:53 PM 68.0 °F - 39.9 °F 36% 30.12 in 10.0 mi WNW 11.5 mph 16.1 mph N/A   Scattered Clouds
5:53 PM 66.9 °F - 37.9 °F 34% 30.12 in 10.0 mi WSW 10.4 mph - N/A   Partly Cloudy
6:53 PM 64.0 °F - 39.9 °F 41% 30.10 in 10.0 mi WSW 6.9 mph - N/A   Partly Cloudy
7:53 PM 53.1 °F - 43.0 °F 69% 30.10 in 10.0 mi SSW 6.9 mph - N/A   Partly Cloudy
8:53 PM 53.1 °F - 41.0 °F 64% 30.10 in 10.0 mi SW 5.8 mph - N/A   Clear
9:53 PM 48.9 °F - 41.0 °F 74% 30.10 in 10.0 mi SW 8.1 mph - N/A   Clear
10:53 PM 51.1 °F - 39.9 °F 66% 30.09 in 10.0 mi SW 8.1 mph - N/A   Clear
11:53 PM 52.0 °F - 39.9 °F 63% 30.09 in 10.0 mi SW 9.2 mph - N/A   Clear